User: anonymous   Login
Location: Unspecified
(0.0000°N, 0.0000°E)
Time: 03:52:15
(UTC+01:00)
Language:

ADEOS II - Orbit

View from above orbital plane
View from above orbital plane
View from above satellite
View from above satellite

Ground track
Ground track

The orbit data is extracted from the following two-line orbital elements,

1 27597U 02056A   17051.04912496  .00000068  00000-0  44636-4 0  9993
2 27597  98.3549  25.6770 0000932  33.6108 326.5133 14.27267816738715
Epoch (UTC): 20 February 2017 01:10:44
Eccentricity: 0.0000932
inclination: 98.3549°
perigee height: 800 km
apogee height: 801 km
right ascension of ascending node: 25.6770°
argument of perigee: 33.6108°
revolutions per day: 14.27267816
mean anomaly at epoch: 326.5133°
orbit number at epoch: 73871

The dashed part of the orbit path shows where the satellite is in the earth's shadow,  

DLR